Weather History for KPHN - July, 2013

Change the Weather History Date:

Thursday, July 4, 2013

  Actual Average (KMTC) Record (KMTC)
Temperature  
Mean Temperature 75 °F -  
Max Temperature 82 °F 80 °F 100 °F (1990)
Min Temperature 68 °F 61 °F 48 °F (1963)
Cooling Degree Days 10    
Growing Degree Days 25 (Base 50)    
Moisture  
Dew Point 68 °F    
Average Humidity 84    
Maximum Humidity 100    
Minimum Humidity 61    
Precipitation  
Precipitation 0.00 in - - ()
Sea Level Pressure  
Sea Level Pressure 30.11 in    
Wind  
Wind Speed 5 mph (SSW)    
Max Wind Speed 14 mph    
Max Gust Speed 17 mph    
Visibility 9 miles    
Events Rain    
Averages and records for this station are not official NWS values.
T = Trace of Precipitation, MM = Missing Value Source: NWS Daily Summary

Daily Weather History Graph

Daily Weather History Graph

Search for Another Location

Airport or City:

Trip Planner

Search our weather history database for the weather conditions in past years. The results will help you decide how hot, cold, wet, or windy it might be!

Date:

Astronomy

Jul. 04, 2013 Rise Set
Actual Time 5:56 AM EDT 9:11 PM EDT
Civil Twilight 5:22 AM EDT 9:46 PM EDT
Nautical Twilight 4:36 AM EDT 10:31 PM EDT
Astronomical Twilight 3:41 AM EDT 11:26 PM EDT
Moon 3:14 AM EDT (7/4) 6:13 PM EDT (7/4)
Length of Visible Light 16h 24m
Length of Day
15h 15m
Waning Crescent, 11% of the Moon is Illuminated
Jul 4
Waning Crescent
Jul 8
New
Jul 15
First Quarter
Jul 22
Full
Jul 29
Last Quarter

Hourly Weather History & Observations

Time (EDT) Temp. Heat Index Dew Point Humidity Pressure Visibility Wind Dir Wind Speed Gust Speed Precip Events Conditions
12:17 AM 68.0 °F - 66.2 °F 94% 30.11 in 10.0 mi Calm Calm - N/A   Scattered Clouds
12:37 AM 69.8 °F - 68.0 °F 94% 30.11 in 10.0 mi SSE 3.5 mph - N/A   Clear
12:57 AM 69.8 °F - 68.0 °F 94% 30.11 in 10.0 mi SSE 3.5 mph - N/A   Clear
1:17 AM 69.8 °F - 68.0 °F 94% 30.11 in 10.0 mi SSE 5.8 mph - N/A   Clear
1:37 AM 69.8 °F - 68.0 °F 94% 30.10 in 10.0 mi South 4.6 mph - N/A   Scattered Clouds
1:57 AM 69.8 °F - 68.0 °F 94% 30.10 in 10.0 mi South 3.5 mph - N/A   Scattered Clouds
2:17 AM 69.8 °F - 68.0 °F 94% 30.09 in 10.0 mi Calm Calm - N/A   Mostly Cloudy
2:37 AM 68.0 °F - 68.0 °F 100% 30.09 in 10.0 mi Calm Calm - N/A   Scattered Clouds
2:57 AM 68.0 °F - 66.2 °F 94% 30.09 in 10.0 mi Calm Calm - N/A   Scattered Clouds
3:17 AM 68.0 °F - 66.2 °F 94% 30.09 in 7.0 mi Calm Calm - N/A   Clear
3:37 AM 68.0 °F - 68.0 °F 100% 30.09 in 7.0 mi South 3.5 mph - N/A   Scattered Clouds
3:57 AM 68.0 °F - 68.0 °F 100% 30.09 in 7.0 mi Calm Calm - N/A   Mostly Cloudy
4:17 AM 68.0 °F - 68.0 °F 100% 30.10 in 7.0 mi Calm Calm - N/A   Mostly Cloudy
4:37 AM 68.0 °F - 68.0 °F 100% 30.10 in 5.0 mi South 3.5 mph - N/A Rain Light Rain
4:57 AM 68.0 °F - 68.0 °F 100% 30.11 in 5.0 mi South 4.6 mph - N/A   Drizzle
5:17 AM 69.8 °F - 69.8 °F 100% 30.10 in 7.0 mi South 6.9 mph - N/A   Light Drizzle
5:37 AM 69.8 °F - 69.8 °F 100% 30.10 in 7.0 mi South 6.9 mph - N/A   Overcast
5:57 AM 69.8 °F - 69.8 °F 100% 30.11 in 7.0 mi South 9.2 mph - N/A   Overcast
6:17 AM 69.8 °F - 68.0 °F 94% 30.11 in 7.0 mi South 5.8 mph - N/A   Mostly Cloudy
6:37 AM 69.8 °F - 68.0 °F 94% 30.11 in 7.0 mi SSW 4.6 mph - N/A   Overcast
6:57 AM 69.8 °F - 68.0 °F 94% 30.12 in 7.0 mi SSW 3.5 mph - N/A   Mostly Cloudy
7:17 AM 69.8 °F - 68.0 °F 94% 30.12 in 10.0 mi SSW 6.9 mph - N/A   Scattered Clouds
7:37 AM 68.0 °F - 68.0 °F 100% 30.13 in 10.0 mi SSW 4.6 mph - N/A   Clear
7:57 AM 69.8 °F - 66.2 °F 88% 30.13 in 10.0 mi SSW 3.5 mph - N/A   Clear
8:17 AM 69.8 °F - 68.0 °F 94% 30.14 in 10.0 mi SW 4.6 mph - N/A   Clear
8:37 AM 69.8 °F - 68.0 °F 94% 30.14 in 10.0 mi SSW 5.8 mph - N/A   Clear
8:57 AM 71.6 °F - 69.8 °F 94% 30.14 in 10.0 mi SSW 8.1 mph - N/A   Scattered Clouds
9:17 AM 71.6 °F - 69.8 °F 94% 30.14 in 10.0 mi SW 6.9 mph - N/A   Scattered Clouds
9:37 AM 71.6 °F - 69.8 °F 94% 30.14 in 10.0 mi SSW 9.2 mph - N/A   Mostly Cloudy
9:57 AM 73.4 °F - 69.8 °F 88% 30.14 in 10.0 mi SSW 8.1 mph - N/A   Overcast
10:17 AM 73.4 °F - 69.8 °F 88% 30.14 in 10.0 mi SW 4.6 mph - N/A   Overcast
10:37 AM 73.4 °F - 69.8 °F 88% 30.14 in 10.0 mi South 9.2 mph - N/A   Mostly Cloudy
10:57 AM 75.2 °F - 69.8 °F 83% 30.13 in 7.0 mi South 6.9 mph - N/A   Mostly Cloudy
11:17 AM 77.0 °F - 71.6 °F 83% 30.14 in 10.0 mi SW 5.8 mph - N/A   Mostly Cloudy
11:37 AM 77.0 °F - 69.8 °F 78% 30.13 in 10.0 mi SW 4.6 mph - N/A   Scattered Clouds
11:57 AM 78.8 °F - 69.8 °F 74% 30.13 in 10.0 mi SSW 5.8 mph - N/A   Scattered Clouds
12:17 PM 78.8 °F - 69.8 °F 74% 30.13 in 10.0 mi South 9.2 mph - N/A   Scattered Clouds
12:37 PM 78.8 °F - 69.8 °F 74% 30.13 in 10.0 mi SSW 8.1 mph - N/A   Scattered Clouds
12:57 PM 78.8 °F - 69.8 °F 74% 30.13 in 10.0 mi SSW 9.2 mph - N/A   Scattered Clouds
1:17 PM 78.8 °F - 66.2 °F 65% 30.13 in 10.0 mi SSW 10.4 mph 16.1 mph N/A   Scattered Clouds
1:37 PM 78.8 °F - 68.0 °F 69% 30.13 in 10.0 mi SSW 10.4 mph 16.1 mph N/A   Clear
1:57 PM 78.8 °F - 68.0 °F 69% 30.13 in 10.0 mi SW 8.1 mph - N/A   Clear
2:17 PM 80.6 °F 83.2 °F 68.0 °F 65% 30.12 in 10.0 mi South 8.1 mph - N/A   Clear
2:37 PM 80.6 °F 83.2 °F 68.0 °F 65% 30.12 in 10.0 mi South 10.4 mph 17.3 mph N/A   Scattered Clouds
2:57 PM 80.6 °F 83.2 °F 68.0 °F 65% 30.11 in 10.0 mi SSW 6.9 mph - N/A   Scattered Clouds
3:17 PM 80.6 °F 83.2 °F 68.0 °F 65% 30.11 in 10.0 mi South 12.7 mph 16.1 mph N/A   Scattered Clouds
3:37 PM 82.4 °F 85.4 °F 68.0 °F 62% 30.11 in 10.0 mi South 13.8 mph - N/A   Scattered Clouds
3:57 PM 82.4 °F 85.4 °F 68.0 °F 62% 30.10 in 10.0 mi South 10.4 mph - N/A   Clear
4:17 PM 82.4 °F 85.4 °F 68.0 °F 62% 30.10 in 10.0 mi SW 6.9 mph - N/A   Clear
4:37 PM 80.6 °F 82.7 °F 66.2 °F 61% 30.10 in 10.0 mi SSW 10.4 mph - N/A   Clear
4:57 PM 80.6 °F 83.2 °F 68.0 °F 65% 30.10 in 10.0 mi South 10.4 mph - N/A   Clear
5:17 PM 78.8 °F - 66.2 °F 65% 30.10 in 10.0 mi SW 9.2 mph - N/A   Clear
5:37 PM 80.6 °F 83.2 °F 68.0 °F 65% 30.10 in 10.0 mi SSW 8.1 mph - N/A   Clear
5:57 PM 78.8 °F - 68.0 °F 69% 30.09 in 10.0 mi SSW 5.8 mph - N/A   Clear
6:17 PM 78.8 °F - 68.0 °F 69% 30.09 in 10.0 mi SSW 4.6 mph - N/A   Clear
6:37 PM 78.8 °F - 68.0 °F 69% 30.09 in 10.0 mi SW 5.8 mph - N/A   Clear
6:57 PM 77.0 °F - 68.0 °F 74% 30.08 in 10.0 mi South 8.1 mph - N/A   Clear
7:17 PM 77.0 °F - 68.0 °F 74% 30.09 in 10.0 mi South 8.1 mph - N/A   Clear
7:37 PM 77.0 °F - 68.0 °F 74% 30.09 in 10.0 mi South 6.9 mph - N/A   Clear
7:57 PM 75.2 °F - 68.0 °F 78% 30.09 in 10.0 mi SSW 5.8 mph - N/A   Scattered Clouds
8:17 PM 75.2 °F - 68.0 °F 78% 30.10 in 10.0 mi SSW 3.5 mph - N/A   Scattered Clouds
8:37 PM 75.2 °F - 68.0 °F 78% 30.10 in 10.0 mi SSW 9.2 mph - N/A   Mostly Cloudy
8:57 PM 73.4 °F - 68.0 °F 83% 30.10 in 10.0 mi South 8.1 mph - N/A   Scattered Clouds
9:17 PM 73.4 °F - 68.0 °F 83% 30.10 in 10.0 mi South 5.8 mph - N/A   Mostly Cloudy
9:37 PM 73.4 °F - 68.0 °F 83% 30.10 in 10.0 mi South 5.8 mph - N/A   Overcast
9:57 PM 71.6 °F - 68.0 °F 88% 30.11 in 10.0 mi SSW 3.5 mph - N/A   Overcast
10:17 PM 71.6 °F - 68.0 °F 88% 30.11 in 10.0 mi South 4.6 mph - N/A   Overcast
10:37 PM 71.6 °F - 68.0 °F 88% 30.12 in 10.0 mi South 5.8 mph - N/A   Overcast
10:57 PM 71.6 °F - 68.0 °F 88% 30.12 in 10.0 mi South 4.6 mph - N/A   Overcast
11:17 PM 71.6 °F - 68.0 °F 88% 30.12 in 10.0 mi SSW 4.6 mph - N/A   Overcast
11:37 PM 71.6 °F - 68.0 °F 88% 30.12 in 10.0 mi South 5.8 mph - N/A   Overcast
11:57 PM 71.6 °F - 68.0 °F 88% 30.12 in 10.0 mi Calm Calm - N/A   Overcast